Powerscourt Airfield

Jump to: basic info | weather | comments

Related pages: nearby airports | nearby navaids | notams | map

Basic information (top)

Codes: EIPT
Location: lon 53.178301, lat -6.196495, elev 470 ft / 143 m msl
Status: small_airport

Weather (top)

Current conditions for Casement Air Base 12nm (22km) NW (rec'd 2014/11/29 08:00Z):

EIME 290800Z 25002KT 0100 FG VV001 05/05 Q1008

Airport forecast for Dublin Airport 15nm (27km) N (rec'd 2014/11/29 06:24Z):

TAF EIDW 290500Z 2906/3006 VRB03KT 9999 SCT012 BKN020 
      TEMPO 2906/2909 3000 BR BKN010 PROB30 
      TEMPO 2906/2909 0800 FG BKN003 
      BECMG 2913/2916 25005KT 
      TEMPO 3004/3006 4000 BR

Latest comments (top)

Reopened: does anybody know about reopening and ppr? [read]

Operations suspended at this airport: Air Accident Investigation Unit Interim ... [read]

re: Powerscourt Airfield: Thank you very much - I've updated the position. [read]

Powerscourt Airfield: Position 53:10.787N 006:12.075W ... [read]

More... (top)

See also NOTAMs and nearby airports and navaids, or visit the Powerscourt Airfield page at the main OurAirports website..